Regional Weather Roundup
Issued by NWS

Home | Current Version | Previous Version | Text Only | Print | Product List | Glossary Off
Versions: 1 2 3 4 5 6 7 8 9 10 11 12 13 14 15 16 17 18 19 20 21 22 23 24 25 26 27 28 29 30 31 32 33 34 35 36 37 38 39 40 41 42 43 44 45 46 47 48 49 50

429
ASUS45 KBOI 261810
RWRID

IDAHO REGIONAL WEATHER ROUNDUP
NATIONAL WEATHER SERVICE BOISE ID
1200 PM MDT TUE JUL 26 2016

NOTE: "FAIR" INDICATES FEW OR NO CLOUDS BELOW 12000 FEET
WITH NO SIGNIFICANT WEATHER AND/OR OBSTRUCTIONS TO VISIBILITY

IDZ012-014-261900-
SOUTHWEST IDAHO


CITY           SKY/WX    TMP DP  RH WIND       PRES   REMARKS
BOISE          SUNNY     85  44  23 W5        30.01S
CALDWELL       SUNNY     87  54  32 CALM      30.00S
MOUNTAIN HOME  SUNNY     87  39  18 N6        30.01F
$$

IDZ016-017-261900-
SOUTHCENTRAL IDAHO


CITY           SKY/WX    TMP DP  RH WIND       PRES   REMARKS
BURLEY         SUNNY     83  45  26 CALM      30.07F
JEROME         SUNNY     80  43  26 S5        30.09S
TWIN FALLS       N/A    N/A N/A N/A MISG      30.09S
$$

IDZ019>023-261900-
SOUTHEAST IDAHO


CITY           SKY/WX    TMP DP  RH WIND       PRES   REMARKS
IDAHO FALLS    SUNNY     85  40  20 N7        30.12F
POCATELLO      SUNNY     87  44  22 NE10      30.10F
REXBURG        SUNNY     81  41  24 VRB3      30.14S
$$

IDZ006-010-011-018-031-032-261900-
CENTRAL IDAHO MOUNTAINS


CITY           SKY/WX    TMP DP  RH WIND       PRES   REMARKS
MCCALL         SUNNY     78  47  33 VRB5      30.15F
HAILEY         MOSUNNY   82  45  26 SE12      30.18F
STANLEY          N/A     77  37  23 N6        30.24F
SALMON         SUNNY     77  45  31 NW3       30.08F
CHALLIS        SUNNY     81  35  19 N3        30.13F
$$

IDZ002-004-006-007-026-261900-
NORTHERN IDAHO


CITY           SKY/WX    TMP DP  RH WIND       PRES   REMARKS
LEWISTON       SUNNY     86  53  32 CALM      30.01S
LOWELL           N/A     79  52  38 CALM      30.00F
COEUR D`ALENE  PTSUNNY   81  55  41 NE15G22   30.04S
MULLAN PASS    MOSUNNY   69  47  45 VRB5      30.25R
$$




USA.gov is the U.S. government's official web portal to all federal, state and local government web resources and services.